Regional Weather Roundup
Issued by NWS Wilmington, NC

Home | Current Version | Previous Version | Text Only | Print | Product List | Glossary On
Versions: 1 2 3 4 5 6 7 8 9 10 11 12 13 14 15 16 17 18 19 20 21 22 23 24 25 26 27 28 29 30 31 32 33 34 35 36 37 38 39 40 41 42 43 44 45 46 47 48 49 50
000
ASUS42 KILM 221610
RWRILM
RWRILM
REGIONAL HOURLY WEATHER ROUNDUP
NATIONAL WEATHER SERVICE WILMINGTON NC
1200 PM EDT FRI AUG 22 2014

NOTE: "FAIR" INDICATES FEW OR NO CLOUDS BELOW 12,000 FEET WITH NO
SIGNIFICANT WEATHER AND/OR OBSTRUCTIONS TO VISIBILITY.

...............WFO WILMINGTON COUNTY WARNING AREA...............

......COASTAL NC AND SC COUNTIES......

CITY           SKY/WX    TMP DP  RH WIND       PRES   REMARKS
WILMINGTON     MOSUNNY   91  72  53 NW8       30.02F HX  98
SOUTHPORT      MOSUNNY   92  70  48 NW6       30.03S HX  97
N MYRTLE BEACH MOSUNNY   90  73  57 VRB3      30.02  HX  98
MYRTLE BEACH   SUNNY     93  72  49 W8        30.03S HX 100

......INLAND NC AND SC COUNTIES.......

CITY           SKY/WX    TMP DP  RH WIND       PRES   REMARKS
LUMBERTON      PTSUNNY   92  71  50 NW8       30.02F HX  98
ELIZABETHTOWN  PTSUNNY   89  72  56 CALM      30.03F HX  96
WHITEVILLE     MOSUNNY   89  72  57 CALM      30.03S HX  95
FLORENCE       MOSUNNY   93  71  48 VRB3      30.02F HX 100
DARLINGTON     MOSUNNY   91  72  52 NW6       30.03F HX  98

....................REST OF NORTH CAROLINA......................

.........EASTERN NC.........

CITY           SKY/WX    TMP DP  RH WIND       PRES   REMARKS
CAPE HATTERAS  PTSUNNY   83  73  72 W8        29.99S
JACKSONVILLE   PTSUNNY   91  72  52 W7        30.01F HX  98
MOREHEAD CITY  MOSUNNY   91  71  51 W13       30.00F HX  97
KENANSVILLE    MOSUNNY   89  69  51 CALM      30.01F HX  93
NEW BERN       MOSUNNY   92  72  51 NW9       30.00F HX  99
ELIZABETH CITY MOSUNNY   85  71  63 NW6       29.98S HX  90

.........CENTRAL NC.........

CITY           SKY/WX    TMP DP  RH WIND       PRES   REMARKS
RALEIGH DURHAM PTSUNNY   88  72  58 NW3       30.03S HX  94
ROCKY MOUNT    MOSUNNY   88  72  58 NW9       30.00F HX  94
ROANOKE RAPIDS NOT AVBL
FAYETTEVILLE   MOSUNNY   93  70  46 N8        30.01F HX  99
HOFFMAN        MOSUNNY   91  68  46 N3        30.04F HX  95

.........WESTERN NC.........

CITY           SKY/WX    TMP DP  RH WIND       PRES   REMARKS
CHARLOTTE      CLOUDY    91  67  44 VRB6      30.06F HX  94
GREENSBORO     CLOUDY    88  71  57 NW9       30.05F HX  94
HICKORY        NOT AVBL
BOONE          NOT AVBL
ASHEVILLE      NOT AVBL

.....................REST OF SOUTH CAROLINA.....................

.........EASTERN SC.........

CITY           SKY/WX    TMP DP  RH WIND       PRES   REMARKS
CHARLESTON     MOSUNNY   95  71  45 W7        30.03F HX 102
BEAUFORT MCAS  MOSUNNY   95  72  47 N7        30.04F HX 103
HILTON HEAD    NOT AVBL

.........CENTRAL SC.........

CITY           SKY/WX    TMP DP  RH WIND       PRES   REMARKS
COLUMBIA       PTSUNNY   94  69  44 NW8       30.03F HX  99
ORANGEBURG     SUNNY     93  68  43 NW8       30.04F HX  97
SUMTER SHAW    MOSUNNY   93  74  53 NW9       30.02F HX 103

.........WESTERN SC.........

CITY           SKY/WX    TMP DP  RH WIND       PRES   REMARKS
GREENVILLE     NOT AVBL
ROCK HILL      SUNNY     90  71  53 VRB6      30.06F HX  96
ANDERSON       MOSUNNY   90  69  50 W6        30.09F HX  94
CLEMSON        NOT AVBL
GREENWOOD      MOSUNNY   93  66  40 NE5       30.08F HX  96


...................COASTAL AND OFFSHORE REPORTS..................

................LOCAL PIERS AND NC RESERVE................


STATION/POSITION TIME  SKY/WX   TEMP    WIND        PRES    VSBY
                                AIR SEA DIR/SP/G
                 (UTC)          (F)     (DEG/KT/KT) (MB)    (MI)
JOHNY MRCER PIER 1600            90 83  310/  8/ 11 1016.1F
NC RESRV MASNBRO 1500            89     270/  2     1017.0S
OCEAN CREST PIER 1600            87 85  210/  9/ 10 1015.8F
SPRINGMAID  PIER 1600            91 84  260/  4/  7 1016.7F


................COASTAL AND OFFSHORE BUOYS................


STATION/POSITION TIME  SKY/WX   TEMP    WIND        PRES    VSBY
                                AIR SEA DIR/SP/G
                 (UTC)          (F)     (DEG/KT/KT) (MB)    (MI)
DIMNDSHOAL 41025 1600            79     280/  6/  8 1015.5S
WVE H/P(F/S)=  2/ 8 WND WVE H/P(F/S)=  2/ 4 SWL H/P/D(F/S/D)=  2/ 30/ 8

CAPE LOOKOUT     1500            85     270/  9/ 11 1016.1S
ONSLOW BAY 41036 1600            82 83  290/  8/ 10 1016.1S
WVE H/P(F/S)=  2/ 4 WND WVE H/P(F/S)=  2/ 4 SWL H/P/D(F/S/D)=  2/210/ 4

5 WRITEBCH 41038 1600            84 83  230/  2/  2   N/A
MASONBORO  41110 1600               84                N/A
WVE H/P(F/S)=  1/ 5 WND WVE H/P(F/S)=  2/ 5

WILM HARBR 41108 1600               84                N/A
WVE H/P(F/S)=  2/ 4 WND WVE H/P(F/S)=  2/ 4

27WRITEBCH 41037 1500            80 84  280/ 10/ 10 1016.7R
FRYING PAN 41013 NOT AVBL
SUNST NRSH 41024 1500            86     240/  6/  6 1016.9S
CAPRS NRSH 41029 1500            87     220/  4/  6   N/A
EDISTO     41004 1600            85 85  260/  6/  6 1016.9F
WVE H/P(F/S)=  2/ 4 WND WVE H/P(F/S)=  2/ 4 SWL H/P/D(F/S/D)=  2/ 9



..........OFFSHORE BUOYS BEYOND 100 NM OFFSHORE...........
.....IN A TRIANGLE---HAT TO BERMUDA TO BAHAMAS TO HAT.....


STATION/POSITION TIME  SKY/WX   TEMP    WIND        PRES    VSBY
                                AIR SEA DIR/SP/G
                 (UTC)          (F)     (DEG/KT/KT) (MB)    (MI)
150E HAT   41001 NOT AVBL
W BERMUDA  41048 1451            81 81  230/ 12/ 14 1017.0F
WVE H/P(F/S)=  4/ 5 WND WVE H/P(F/S)=  3/ 5 SWL H/P/D(F/S/D)=  2/280/ 6

ATLANTIC S 41049 1533            85 86  110/  8/  8 1018.9F
WVE H/P(F/S)=  3/ 7 WND WVE H/P(F/S)=  2/ 4 SWL H/P/D(F/S/D)=  3/310/ 7

E BAHAMAS  41046 1532            85 85   90/ 17/ 21 1015.7F
WVE H/P(F/S)=  5/ 6 WND WVE H/P(F/S)=  5/ 6 SWL H/P/D(F/S/D)=  2/ 70/12

NE BAHAMAS 41047 1538            83 84   80/  8/ 10 1019.2F
WVE H/P(F/S)=  3/ 6 WND WVE H/P(F/S)=  2/ 3 SWL H/P/D(F/S/D)=  3/130/ 6

120E CANVRL41010 1600            83 86  280/  6/  6 1019.2S
WVE H/P(F/S)=  2/ 3 WND WVE H/P(F/S)=  2/ 3 SWL H/P/D(F/S/D)=  2/140/ 6


END


USA.gov is the U.S. government's official web portal to all federal, state and local government web resources and services.